039  
SXUS52 KCHS 021225  
OSOCHS  
 
MARINE OBSERVATIONS  
NATIONAL WEATHER SERVICE CHARLESTON SC  
700 AM EST FRI DEC 02 2022  
   
..DOWNTOWN CHARLESTON AND HARBOR
 
 
 
CITY SKY/WX TMP DP RH WIND PRES REMARKS  
WATERFRONT PRK N/A 47 36 65 N9 30.32R  
   
..LAKE MOULTRIE
 
 
 
CITY SKY/WX TMP DP RH WIND PRES REMARKS  
PINOPOLIS N/A 45 34 65 NE12 N/A  
   
..LAKE AND SUPPLEMENTAL COASTAL OBSERVATIONS
 
 
 
STATION/POSITION TIME TEMP WIND PRES WAVE SWELL  
AIR SEA DIR/SP/G HT/PER HT/PER/DIR  
(UTC) (F) (DEG/KT/KT) (MB) (FT/S) (FT/S/D)  
CHRLSTN HARBOR 1148 46 61 340/ 9/ 12 1030.4R  
FORT PULASKI 1148 51 61 40/ 8/ 12 1030.7R  
SAPELO ISLAND 1200 51 20/ 10 1029.0  
WINYAH BAY 1145 42 360/ 6 1032.0R  
LAKE MURRAY 1130 37 60/ 1/ 2 N/A  
ACE BASIN NERRS 1145 44 350/ 3 1033.0R  
 
   
..C-MAN AND BUOY OBSERVATIONS
 
 
 
STATION/POSITION TIME TEMP WIND PRES WAVE SWELL  
AIR SEA DIR/SP/G HT/PER HT/PER/DIR  
(UTC) (F) (DEG/KT/KT) (MB) (FT/S) (FT/S/D)  
BUOY 41004 1210 69 75 100/ 10/ 12 1030.7  
BUOY 41008 1150 63 66 30/ 17/ 21 1027.9R 5/ 5  
FOLLY BEACH CMAN 1200 48 360/ 11/ 14 1032.1R  
PRITCHARDS ISLAN NOT AVBL  
CHAS PILOT BUOY 1108 58 70 20/ 21/ 27 1029.8R  
CHAS PILOT WAVE 1104 N/A 4/ 6  
CAPERS NS BUOY 1108 51 61 20/ 17/ 25 1030.9R  
CAPERS NS WAVE 1135 60 N/A 3/ 5  
FRIPP NS BUOY 1108 55 62 30/ 17/ 27 1029.8R  
5E ST. MARYS GA 1130 60 64 N/A 4/ 6  
 
 
STATION/POSITION TIME TEMP WIND PRES WAVE SWELL  
AIR SEA DIR/SP/G HT/PER HT/PER/DIR  
(UTC) (F) (DEG/KT/KT) (MB) (FT/S) (FT/S/D)  
FRYING PAN BUOY 1210 65 71 90/ 10/ 14 1031.8  
BUOY 41025 1210 74 20/ 14/ 17 1033.1  
CAPE LOOKOUT NC 1200 48 10/ 12/ 16 1034.0R  
BUOY 41002 1210 67 74 60/ 17/ 23 1028.8  
BUOY 41010 1210 73 77 80/ 14/ 19 1027.1  
ST AUGUSTINE FL 1200 68 66 90/ 8/ 8 1028.1R  
 

 
 
 
CLICK HERE TO GO TO PREVIOUS BULLETINS.

The Nexlab SC Page
The Nexlab GA Page Main Text Page